This is the latest recevied weather packets stored in our database for station/object E22ZMG-1. If no packets are shown the sender has not sent any weather packets the latest 10 day(s).
| Time | Temp. | Humidity | Pressure | Rain* | Wind** | Luminosity | Snow |
|---|---|---|---|---|---|---|---|
| 1777553323 | 34.44° C | 46% | 975 hPa | - | - | 0 W/m² | - |
| 1777552697 | 35° C | 46% | 975 hPa | - | - | 0 W/m² | - |
| 1777552071 | 35° C | 46% | 974 hPa | - | - | 0 W/m² | - |
| 1777551445 | 35.56° C | 44% | 974 hPa | - | - | 0 W/m² | - |
| 1777550819 | 35.56° C | 43% | 974 hPa | - | - | 0 W/m² | - |
| 1777550193 | 36.11° C | 43% | 974 hPa | - | - | 0 W/m² | - |
| 1777549568 | 35.56° C | 44% | 974 hPa | - | - | 0 W/m² | - |
| 1777548943 | 35° C | 45% | 974 hPa | - | - | 0 W/m² | - |
| 1777548318 | 35° C | 45% | 973 hPa | - | - | 0 W/m² | - |
| 1777547691 | 36.11° C | 43% | 973 hPa | - | - | 0 W/m² | - |
| 1777547065 | 35.56° C | 45% | 973 hPa | - | - | 0 W/m² | - |
| 1777546439 | 36.67° C | 42% | 973 hPa | - | - | 0 W/m² | - |
| 1777545814 | 36.67° C | 41% | 973 hPa | - | - | 0 W/m² | - |
| 1777545189 | 37.22° C | 37% | 973 hPa | - | - | 0 W/m² | - |
| 1777544561 | 36.67° C | 36% | 973 hPa | - | - | 0 W/m² | - |
| 1777543935 | 37.78° C | 33% | 973 hPa | - | - | 0 W/m² | - |
| 1777543310 | 37.22° C | 32% | 972 hPa | - | - | 0 W/m² | - |
| 1777542683 | 37.22° C | 34% | 972 hPa | - | - | 0 W/m² | - |
| 1777527527 | 38.89° C | 36% | 976 hPa | - | - | 0 W/m² | - |
| 1777526899 | 39.44° C | 35% | 976 hPa | - | - | 0 W/m² | - |
| 1777526274 | 38.33° C | 36% | 976 hPa | - | - | 0 W/m² | - |
| 1777525649 | 37.22° C | 38% | 976 hPa | - | - | 0 W/m² | - |
| 1777525023 | 37.22° C | 38% | 976 hPa | - | - | 0 W/m² | - |
| 1777524398 | 36.67° C | 39% | 976 hPa | - | - | 0 W/m² | - |
| 1777523772 | 37.22° C | 39% | 976 hPa | - | - | 0 W/m² | - |
* Rain since midnight (hover to see other rain measurements)
** Current wind speed in m/s (hover to see current wind gust speed)